GMMX

Marrakech-Menara Airport

Airport
ICAO code
GMMX
IATA Code
RAK
Summary
ICAO Region
AFI
ICAO Territory
Location

Marrakesh, Marrakesh-Safi region

Serving
Marrakesh
Elevation
1545 ft
Coordinates
31° 36' 25" N , 8° 2' 11" W
KCC
Metar
Observation
GMMX 021600Z 31005KT 280V010 8000 BKN023 19/10 Q1008 NOSIG
Station
Marrakech
Date/Time
2022-12-02 16:00:00
Wind direction
310°
Wind speed
05 kts
Lowest cloud amount
broken clouds
Temperature
19°C
Dew point
10°C
Humidity
55%
QNH
1008 hPa
Weather condition
n/a

Marrakesh Menara Airport is an international airport serving Marrakesh, the capital city of the Marrakesh-Safi region in Morocco.

Climatology

Warm semi-arid climate (Köppen climate classification BSh)

Runways

Designator Length Width Surface Rops
10/28 3100 45 ASP Yes/Yes

Airport map

Aerial View

SKYbrary Partners:

Safety knowledge contributed by: